Home   Weather   Ibadan   Past weeks

Flag for Nigeria Past Weather in Ibadan, Nigeria — Yesterday and Last 2 Weeks

Now
77 °F

Passing clouds.


Feels Like: 78 °F
Forecast: 72 / 79 °F
Wind: 12 mph from West

Location: Lagos / Ikeja

Current Time: Aug 17, 2017 at 8:39:43 pm

Latest Report: Aug 17, 2017 at 8:00 pm


Visibility: 5 mi

Pressure: 29.89 "Hg

Humidity: 89%

Dew Point: 73 °F

Location of IbadanLocation

Past Weather in Ibadan — Graph

°F

Ibadan Temperature Yesterday

Maximum temperature yesterday: 82 °F (at 2:00 pm)
Minimum temperature yesterday: 75 °F (at 11:00 pm)
Average temperature yesterday: 79 °F

High & Low Weather Summary for the Past Weeks

 TemperatureHumidityPressure
High84 °F (Aug 7, 4:00 pm)100% (Aug 2, 8:00 pm)30.09 "Hg (Aug 2, 8:00 pm)
Low73 °F (Aug 7, 5:00 am)70% (Aug 7, 4:00 pm)29.77 "Hg (Aug 6, 10:00 am)
Average78 °F88%29.98 "Hg
* Reported Aug 2 8:00 pm — Aug 17 7:00 pm, Ibadan. Weather by CustomWeather, © 2017

Note: Actual official high and low records may vary slightly from our data, if they occured in-between our weather recording intervals... More about our weather records

Advertising

Ibadan Weather History for the Previous 24 Hours

Scroll right to see more
 ConditionsComfort  
Time TempWeatherWind HumidityBarometerVisibility
7:00 pm
Thu, Aug 17
77 °FPassing clouds.3 mph89%29.89 "Hg4 mi
6:00 pm77 °FScattered clouds.12 mph94%29.86 "Hg4 mi
5:00 pm79 °FPartly sunny.6 mph79%29.86 "Hg5 mi
4:00 pm79 °FPartly sunny.2 mph79%29.86 "Hg5 mi
3:00 pm79 °FPartly sunny.2 mph84%29.89 "Hg5 mi
2:00 pm79 °FPartly sunny.5 mph84%29.92 "Hg5 mi
1:00 pm77 °FPartly sunny.6 mph83%29.92 "HgN/A
11:00 am77 °FPartly sunny.6 mph89%29.95 "HgN/A
10:00 am77 °FPartly sunny.7 mph89%29.92 "HgN/A
9:00 am75 °FPassing clouds.6 mph94%29.92 "Hg5 mi
8:00 am75 °FScattered clouds.7 mph94%29.92 "Hg5 mi
7:00 am75 °FScattered clouds.3 mph94%29.92 "Hg4 mi
6:00 am73 °FPassing clouds.5 mph94%29.92 "Hg5 mi
5:00 am75 °FPassing clouds.12 mph94%29.89 "Hg5 mi
1:00 am75 °FPassing clouds.7 mph100%29.98 "Hg4 mi
12:00 am75 °FPassing clouds.3 mph100%29.98 "Hg4 mi
11:00 pm
Wed, Aug 16
75 °FPassing clouds.3 mph100%29.98 "Hg4 mi
10:00 pm77 °FPassing clouds.7 mph89%29.98 "Hg4 mi
9:00 pm77 °FPassing clouds.5 mph94%29.98 "Hg4 mi
8:00 pm77 °FLight rain. Passing clouds.3 mph94%29.95 "Hg4 mi
Weather by CustomWeather, © 2017

See weather overviewHow to use our weather pages